Lid_Strength_Index
3 3 3 4 5 5 8 12 19 10 10 18 17 24 18 12 13 12 12 14 14 16 15 17 16 15 13 11 12 14 10 13 18 20 12 11 12 13 13 19 20 19 19 21
3 3 3 4 4 5 11 15 15 10 10 22 23 18 15 14 13 13 13 13 13 13 15 20 15 13 11 11 11 12 11 14 21 20 16 14 17 14 14 14 15 18 20 20
3 3 3 4 4 5 10 15 17 14 14 14 18 20 19 17 13 12 12 13 12 13 17 14 16 14 12 11 10 8 10 14 16 19 17 15 19 15 15 16 21 19 18 18
3 3 3 4 4 5 9 14 18 15 17 17 16 17 17 16 18 13 12 14 13 14 21 21 19 14 13 11 9 11 12 15 17 15 14 14 15 15 16 18 16 19 18 18
3 3 3 4 5 5 10 15 16 16 16 16 16 16 18 17 15 15 15 15 14 14 16 17 19 16 14 15 13 14 12 18 14 19 14 14 16 14 18 20 15 16 16 17
2 3 4 4 5 6 12 12 13 14 16 16 16 18 17 16 15 14 12 13 14 15 14 13 13 13 13 13 14 15 15 15 17 21 16 17 18 17 16 15 14 15 20 15
2 3 3 4 5 6 10 12 12 14 20 16 16 15 16 16 15 15 13 13 14 13 12 13 13 14 13 14 14 13 16 17 15 17 19 22 17 13 14 15 14 13 13 13
2 3 3 4 4 5 9 10 11 13 18 16 15 16 16 16 15 15 14 13 12 12 14 18 25 23 23 21 15 14 13 15 18 19 17 17 16 13 14 15 16 13 14 12
2 2 3 4 4 5 9 11 9 11 15 16 14 16 16 18 20 19 17 14 12 13 15 23 28 27 27 26 23 15 13 14 16 22 18 23 15 12 11 12 18 12 12 13
1 2 3 3 4 5 8 10 9 11 14 15 14 17 16 15 16 19 19 16 15 14 20 27 26 26 23 27 26 26 26 22 19 24 18 16 12 11 11 18 15 12 12 12
1 2 2 3 4 5 7 10 10 10 14 14 14 13 15 15 15 18 18 18 18 20 23 24 24 26 23 25 22 22 21 22 20 19 18 21 11 12 14 12 12 12 12 12
1 1 2 3 3 4 6 11 10 9 12 15 13 14 14 14 14 15 16 17 17 15 20 21 21 26 24 27 27 19 23 17 19 17 17 12 11 12 10 10 11 11 12 12
1 1 1 2 2 4 6 10 10 11 15 14 15 16 14 12 13 13 16 16 14 14 14 18 20 23 19 25 24 21 18 16 19 19 17 14 12 12 11 10 11 11 11 11
1 2 2 2 2 3 5 10 9 10 13 16 16 14 15 13 13 13 13 14 14 13 14 18 21 24 17 20 19 20 19 18 21 19 16 16 14 13 12 11 11 12 11 11
1 1 2 2 2 3 7 9 8 9 12 16 17 15 14 14 14 14 13 14 15 17 19 22 21 18 18 18 19 21 18 18 19 19 16 15 15 14 12 12 12 12 12 13
1 2 2 2 2 5 8 13 9 8 11 16 18 16 15 15 14 14 15 15 16 17 18 20 19 18 19 24 26 18 16 16 15 16 17 16 16 18 14 12 13 14 14 15
1 2 1 2 3 6 9 12 11 7 10 16 19 20 16 14 14 16 18 18 19 17 23 23 19 19 18 24 23 17 16 15 15 16 16 17 18 15 16 15 16 19 21 22
1 2 2 2 4 5 11 9 6 7 13 14 19 20 18 15 16 17 15 21 18 20 23 20 20 20 23 21 18 16 17 17 18 16 16 16 19 21 22 24 23 23 20 22
1 1 2 4 8 12 12 7 7 10 12 15 19 22 22 15 16 18 18 20 22 19 19 22 21 24 23 18 17 17 17 17 17 17 20 23 20 17 21 23 26 20 20 27
1 3 11 14 12 6 7 11 13 13 13 15 18 20 20 16 18 19 19 20 21 25 22 20 21 22 18 16 16 16 18 15 19 21 22 24 24 20 20 20 18 16 18 24
9 12 14 11 6 10 12 14 15 14 16 16 18 20 18 16 20 19 18 22 23 28 25 24 30 25 21 15 14 13 16 17 17 15 18 15 19 16 18 22 21 21 22 22
9 11 11 11 12 13 15 16 15 16 18 21 19 19 18 19 17 19 21 23 25 29 21 23 27 23 18 19 16 19 16 16 17 18 18 18 18 18 17 18 20 22 22 26
9 10 13 13 13 17 17 19 20 19 19 20 19 21 19 20 18 20 21 23 26 26 27 27 25 21 21 18 19 22 26 18 16 20 22 20 21 23 19 20 22 21 24 27
12 14 16 15 17 16 17 17 18 20 19 17 16 22 20 22 21 20 21 25 26 28 33 28 24 20 16 19 19 23 22 20 19 20 21 21 22 24 31 24 24 23 25 30
12 13 17 16 19 22 22 18 20 20 14 15 19 21 18 20 20 20 24 27 27 27 26 24 20 21 21 21 21 22 24 22 22 23 21 23 25 26 30 34 32 28 28 30
12 12 15 18 18 21 22 19 17 14 14 13 16 18 19 20 19 23 22 23 25 23 24 22 24 23 22 20 22 24 27 25 25 23 23 25 25 25 26 33 32 32 29 29
12 14 18 18 16 18 19 15 16 12 13 16 18 21 21 20 22 23 21 22 22 22 24 26 25 25 24 24 29 29 27 26 25 26 24 26 28 28 28 29 33 34 35 33